Portada
METAR-TAF:

METAR-TAF

Aeroports :

Person County Airport

Roxboro, Carolina del Nord, Estats Units d'Amèrica

latitud: 36-17-06N, longitud: 078-59-03W, altitud: 186 m

Observació

L'informe es va fer fa 23 minuts, a les 14:55 UTC
Vent 3 kt del Nord
Temperatura 4°C
Humitat 81%
Pressió 1024 hPa
Visibilitat: 16.1 km
Cel cobert a una alçada de 6500 ft

METAR: KTDF 151455Z AUTO 36003KT 10SM OVC065 04/01 A3025 RMK AO2

Hora: 10:18 (15:18 UTC)


TAF: manca

Observacions i pronòstics meteorològics de més de 4000 aeroports (METAR i TAF).

Les estacions disponibles són els punts grocs i vermells al mapa.

Posi el ratolí al punt desitjat per veure el nom de l'estació.

Feu clic per veure les observacions i els pronòstics meteorològics.

Per canviar el mapa: feu clic els botons verds amb una creu de color negre per apropar; al botó verd amb un guió per allunyar la imatge; o en les fletxes verdes per a mapes adjacents.


METAR-TAF: